Station History

Weather Underground - logo

Station Historical Data
Daily Summary for October 1, 2017 Units:  English    Metric   Both
« Previous Day
Next Day »
Daily Weekly Monthly Yearly Custom
  High: Low: Average:
Temperature: TemperatureF °F 54.9 °F 67.4 °F
Dew Point: DewpointF °F 43.2 °F 52.8 °F
Humidity: Humidity % 37 % 62 %
Wind Speed: WindSpeedMPH mph 0.0 mph 1.5 mph
Wind Gust: WindSpeedGustMPH mph - -
Wind:- - SSW
Pressure: PressureIn in 29.70 in -
Precipitation: 0.00 in    
Historical Graphs
 
 
Tabular Data for October 1, 2017
Time Temperature Dew Point Pressure Wind Wind Speed Wind Gust Humidity Rainfall Rate (Hourly)
TemperatureF °F DewpointF °F PressureIn in Calm     Humidity % HourlyPrecipIn in
00:04 61.3 °F 54.4 °F 29.86 in Calm     78 % 0.00 in
00:09 61.2 °F 54.3 °F 29.86 in Calm     78 % 0.00 in
00:14 61.1 °F 54.5 °F 29.86 in Calm     79 % 0.00 in
00:19 61.0 °F 54.4 °F 29.86 in Calm     79 % 0.00 in
00:24 60.9 °F 54.3 °F 29.86 in Calm     79 % 0.00 in
00:29 60.9 °F 54.3 °F 29.86 in Calm     79 % 0.00 in
00:34 61.1 °F 54.2 °F 29.86 in Calm     78 % 0.00 in
00:39 61.0 °F 54.1 °F 29.86 in Calm     78 % 0.00 in
00:44 60.7 °F 54.1 °F 29.86 in NE 1.2 mph   79 % 0.00 in
00:49 60.4 °F 53.9 °F 29.85 in Calm     79 % 0.00 in
00:54 60.1 °F 53.9 °F 29.86 in Calm     80 % 0.00 in
00:59 60.0 °F 53.8 °F 29.86 in Calm     80 % 0.00 in
01:01 59.9 °F 53.7 °F 29.86 in Calm     80 % 0.00 in
01:06 59.8 °F 53.6 °F 29.86 in Calm     80 % 0.00 in
01:11 59.6 °F 53.8 °F 29.86 in Calm     81 % 0.00 in
01:16 59.5 °F 53.7 °F 29.86 in Calm     81 % 0.00 in
01:21 59.5 °F 53.7 °F 29.86 in ENE 1.2 mph 1.2 mph 81 % 0.00 in
01:26 59.4 °F 53.6 °F 29.86 in ENE 1.2 mph 1.2 mph 81 % 0.00 in
01:31 59.2 °F 53.4 °F 29.85 in Calm     81 % 0.00 in
01:36 59.1 °F 53.3 °F 29.85 in Calm     81 % 0.00 in
01:41 58.9 °F 53.4 °F 29.86 in Calm     82 % 0.00 in
01:46 58.8 °F 53.3 °F 29.86 in Calm     82 % 0.00 in
01:51 58.7 °F 53.5 °F 29.86 in ENE 1.2 mph   83 % 0.00 in
01:56 58.8 °F 53.3 °F 29.86 in ENE 1.2 mph 1.2 mph 82 % 0.00 in
02:01 58.7 °F 53.2 °F 29.86 in ENE 1.2 mph 1.2 mph 82 % 0.00 in
02:06 58.7 °F 53.2 °F 29.86 in ENE 6.9 mph   82 % 0.00 in
02:11 58.7 °F 53.2 °F 29.86 in ENE 1.2 mph   82 % 0.00 in
02:16 58.7 °F 53.5 °F 29.86 in ENE 1.2 mph   83 % 0.00 in
02:21 58.8 °F 53.6 °F 29.86 in ENE 1.2 mph   83 % 0.00 in
02:26 58.9 °F 53.4 °F 29.86 in Calm     82 % 0.00 in
02:31 59.0 °F 53.5 °F 29.86 in ENE 1.2 mph   82 % 0.00 in
02:36 59.0 °F 53.2 °F 29.86 in Calm     81 % 0.00 in
02:41 58.8 °F 53.3 °F 29.85 in Calm     82 % 0.00 in
02:46 58.5 °F 53.0 °F 29.85 in Calm     82 % 0.00 in
02:51 58.2 °F 53.1 °F 29.85 in Calm     83 % 0.00 in
02:56 58.0 °F 52.9 °F 29.85 in Calm     83 % 0.00 in
03:01 57.8 °F 52.7 °F 29.85 in Calm     83 % 0.00 in
03:07 57.6 °F 52.5 °F 29.85 in Calm     83 % 0.00 in
03:11 57.7 °F 52.6 °F 29.85 in Calm     83 % 0.00 in
03:16 57.7 °F 52.6 °F 29.84 in Calm     83 % 0.00 in
03:21 57.8 °F 52.7 °F 29.84 in ENE 1.2 mph   83 % 0.00 in
03:26 57.8 °F 52.7 °F 29.84 in Calm     83 % 0.00 in
03:31 57.8 °F 52.7 °F 29.85 in Calm     83 % 0.00 in
03:36 57.7 °F 52.6 °F 29.84 in Calm     83 % 0.00 in
03:41 57.6 °F 52.5 °F 29.84 in Calm     83 % 0.00 in
03:46 57.5 °F 52.4 °F 29.84 in Calm     83 % 0.00 in
03:52 57.3 °F 52.5 °F 29.84 in Calm     84 % 0.00 in
03:57 57.0 °F 52.2 °F 29.84 in Calm     84 % 0.00 in
04:02 57.0 °F 52.9 °F 29.84 in Calm     86 % 0.00 in
04:07 56.9 °F 52.8 °F 29.85 in Calm     86 % 0.00 in
04:12 56.9 °F 52.4 °F 29.85 in Calm     85 % 0.00 in
04:17 57.1 °F 52.6 °F 29.85 in Calm     85 % 0.00 in
04:22 57.0 °F 52.5 °F 29.85 in Calm     85 % 0.00 in
04:27 57.0 °F 52.9 °F 29.85 in Calm     86 % 0.00 in
04:32 57.0 °F 53.2 °F 29.85 in Calm     87 % 0.00 in
04:37 57.0 °F 53.2 °F 29.85 in Calm     87 % 0.00 in
04:42 56.9 °F 52.8 °F 29.85 in Calm     86 % 0.00 in
04:47 56.8 °F 52.3 °F 29.85 in Calm     85 % 0.00 in
04:52 56.7 °F 52.2 °F 29.85 in Calm     85 % 0.00 in
04:57 56.6 °F 52.1 °F 29.84 in Calm     85 % 0.00 in
05:02 56.7 °F 51.9 °F 29.84 in Calm     84 % 0.00 in
05:07 56.7 °F 51.6 °F 29.83 in ENE 1.2 mph 1.2 mph 83 % 0.00 in
05:12 56.4 °F 51.6 °F 29.83 in Calm     84 % 0.00 in
05:17 56.2 °F 51.4 °F 29.83 in Calm     84 % 0.00 in
05:22 56.1 °F 51.3 °F 29.83 in Calm     84 % 0.00 in
05:27 56.1 °F 51.3 °F 29.83 in ENE 1.2 mph 1.2 mph 84 % 0.00 in
05:32 56.2 °F 51.7 °F 29.84 in ENE 1.0 mph   85 % 0.00 in
05:37 56.1 °F 51.7 °F 29.84 in Calm     85 % 0.00 in
05:42 55.9 °F 51.5 °F 29.84 in Calm     85 % 0.00 in
05:47 55.8 °F 51.4 °F 29.84 in Calm     85 % 0.00 in
05:52 55.7 °F 51.3 °F 29.84 in Calm     85 % 0.00 in
05:57 55.7 °F 51.3 °F 29.84 in Calm     85 % 0.00 in
06:02 55.7 °F 51.3 °F 29.84 in Calm     85 % 0.00 in
06:07 55.7 °F 51.3 °F 29.84 in Calm     85 % 0.00 in
06:12 55.5 °F 51.1 °F 29.85 in Calm     85 % 0.00 in
06:17 55.4 °F 51.3 °F 29.85 in Calm     86 % 0.00 in
06:22 55.2 °F 51.1 °F 29.85 in Calm     86 % 0.00 in
06:23 55.2 °F 51.4 °F 29.85 in Calm     87 % 0.00 in
06:28 55.1 °F 51.3 °F 29.86 in Calm     87 % 0.00 in
06:33 55.0 °F 51.5 °F 29.86 in Calm     88 % 0.00 in
06:38 55.0 °F 51.5 °F 29.86 in Calm     88 % 0.00 in
06:43 55.1 °F 51.9 °F 29.87 in Calm     89 % 0.00 in
06:48 54.9 °F 51.4 °F 29.87 in Calm     88 % 0.00 in
06:53 54.9 °F 51.4 °F 29.87 in Calm     88 % 0.00 in
06:58 54.9 °F 51.4 °F 29.87 in Calm     88 % 0.00 in
07:03 54.9 °F 51.1 °F 29.86 in Calm     87 % 0.00 in
07:08 54.9 °F 51.1 °F 29.87 in ENE 1.2 mph 1.2 mph 87 % 0.00 in
07:13 55.0 °F 51.2 °F 29.87 in ENE 1.2 mph   87 % 0.00 in
07:23 55.1 °F 51.3 °F 29.87 in ENE 1.2 mph 1.2 mph 87 % 0.00 in
07:29 55.5 °F 51.7 °F 29.87 in ENE 1.2 mph 1.2 mph 87 % 0.00 in
07:34 55.8 °F 51.7 °F 29.87 in Calm     86 % 0.00 in
07:39 56.1 °F 52.0 °F 29.87 in Calm     86 % 0.00 in
07:44 56.4 °F 52.3 °F 29.87 in Calm     86 % 0.00 in
07:49 56.9 °F 52.4 °F 29.87 in Calm     85 % 0.00 in
07:54 57.4 °F 52.9 °F 29.88 in ENE 1.2 mph   85 % 0.00 in
07:59 58.0 °F 53.5 °F 29.88 in ENE 1.0 mph   85 % 0.00 in
08:04 58.8 °F 53.6 °F 29.88 in Calm     83 % 0.00 in
08:09 60.0 °F 54.5 °F 29.88 in ENE 1.2 mph   82 % 0.00 in
08:14 61.2 °F 55.0 °F 29.88 in SE 1.2 mph 1.2 mph 80 % 0.00 in
08:19 62.1 °F 55.2 °F 29.88 in ESE 1.2 mph 1.2 mph 78 % 0.00 in
08:24 62.8 °F 55.1 °F 29.88 in SE 1.2 mph 1.2 mph 76 % 0.00 in
08:29 63.5 °F 55.8 °F 29.88 in Calm   0.1 mph 76 % 0.00 in
08:34 64.2 °F 56.1 °F 29.88 in SE 1.0 mph 1.0 mph 75 % 0.00 in
08:39 65.2 °F 56.3 °F 29.89 in SE 1.0 mph 1.0 mph 73 % 0.00 in
08:44 65.6 °F 55.9 °F 29.89 in East 2.0 mph 2.0 mph 71 % 0.00 in
08:49 65.8 °F 55.7 °F 29.89 in SE 2.3 mph 2.3 mph 70 % 0.00 in
08:54 66.2 °F 55.7 °F 29.89 in Calm     69 % 0.00 in
08:59 66.6 °F 55.7 °F 29.89 in SSE 2.3 mph 2.3 mph 68 % 0.00 in
09:04 67.2 °F 56.3 °F 29.89 in SE 1.2 mph 1.2 mph 68 % 0.00 in
09:09 67.8 °F 56.4 °F 29.89 in South 1.2 mph   67 % 0.00 in
09:14 68.0 °F 56.2 °F 29.89 in East 3.5 mph 3.5 mph 66 % 0.00 in
09:19 68.0 °F 56.2 °F 29.89 in Calm   0.5 mph 66 % 0.00 in
09:24 68.3 °F 56.5 °F 29.89 in East 2.3 mph 2.3 mph 66 % 0.00 in
09:29 68.6 °F 56.8 °F 29.89 in East 2.3 mph 2.3 mph 66 % 0.00 in
09:36 69.1 °F 56.8 °F 29.89 in East 4.6 mph 4.6 mph 65 % 0.00 in
09:41 69.4 °F 57.1 °F 29.88 in SE 2.3 mph 2.3 mph 65 % 0.00 in
09:46 69.8 °F 57.1 °F 29.88 in SSE 3.5 mph 3.5 mph 64 % 0.00 in
09:51 69.8 °F 57.1 °F 29.88 in SSE 4.0 mph 4.0 mph 64 % 0.00 in
09:56 70.1 °F 57.4 °F 29.88 in SE 2.3 mph 2.3 mph 64 % 0.00 in
10:01 70.5 °F 57.3 °F 29.87 in East 3.5 mph 3.5 mph 63 % 0.00 in
10:06 71.0 °F 57.3 °F 29.87 in SSW 3.5 mph 3.5 mph 62 % 0.00 in
10:11 71.4 °F 57.2 °F 29.87 in SSE 3.5 mph 3.5 mph 61 % 0.00 in
10:16 71.5 °F 57.3 °F 29.87 in South 3.5 mph 3.5 mph 61 % 0.00 in
10:21 71.6 °F 57.4 °F 29.87 in SSW 3.5 mph 3.5 mph 61 % 0.00 in
10:26 72.0 °F 57.4 °F 29.87 in South 4.6 mph 4.6 mph 60 % 0.00 in
10:31 72.4 °F 57.3 °F 29.87 in SE 3.5 mph 3.5 mph 59 % 0.00 in
10:36 72.6 °F 57.4 °F 29.87 in East 3.5 mph 3.5 mph 59 % 0.00 in
10:41 72.8 °F 57.2 °F 29.87 in SSE 4.6 mph 4.6 mph 58 % 0.00 in
10:46 73.1 °F 57.4 °F 29.87 in ESE 3.5 mph 3.5 mph 58 % 0.00 in
10:51 73.7 °F 57.5 °F 29.87 in SSW 3.0 mph 3.0 mph 57 % 0.00 in
10:56 73.8 °F 57.6 °F 29.87 in NNW 3.5 mph 3.5 mph 57 % 0.00 in
11:01 74.4 °F 57.7 °F 29.87 in SSE 3.5 mph 3.5 mph 56 % 0.00 in
11:07 74.7 °F 58.5 °F 29.86 in NE 2.3 mph 2.3 mph 57 % 0.00 in
11:12 75.2 °F 58.9 °F 29.87 in SSE 2.3 mph 2.3 mph 57 % 0.00 in
11:17 75.3 °F 58.0 °F 29.87 in NNW 2.3 mph 2.3 mph 55 % 0.00 in
11:22 75.2 °F 57.4 °F 29.86 in SE 4.6 mph 4.6 mph 54 % 0.00 in
11:27 75.3 °F 57.0 °F 29.86 in South 3.5 mph 3.5 mph 53 % 0.00 in
11:32 75.4 °F 57.6 °F 29.86 in SE 4.6 mph 4.6 mph 54 % 0.00 in
11:37 75.6 °F 57.8 °F 29.86 in ESE 3.5 mph 3.5 mph 54 % 0.00 in
11:42 76.0 °F 57.1 °F 29.86 in SSW 3.5 mph 3.5 mph 52 % 0.00 in
11:47 76.6 °F 58.2 °F 29.85 in SE 1.2 mph 1.2 mph 53 % 0.00 in
11:52 76.8 °F 57.8 °F 29.85 in ESE 4.6 mph 4.6 mph 52 % 0.00 in
11:57 76.6 °F 57.7 °F 29.85 in NNW 1.2 mph 1.2 mph 52 % 0.00 in
12:02 76.7 °F 57.2 °F 29.85 in SE 4.6 mph 4.6 mph 51 % 0.00 in
12:07 76.7 °F 57.7 °F 29.84 in ENE 3.5 mph 3.5 mph 52 % 0.00 in
12:12 76.9 °F 57.4 °F 29.84 in South 2.3 mph 2.3 mph 51 % 0.00 in
12:17 77.2 °F 58.7 °F 29.84 in SE 2.3 mph 2.3 mph 53 % 0.00 in
12:22 77.6 °F 57.5 °F 29.84 in SE 2.3 mph 2.3 mph 50 % 0.00 in
12:27 77.9 °F 57.8 °F 29.83 in SSW 3.5 mph 3.5 mph 50 % 0.00 in
12:32 78.0 °F 57.3 °F 29.83 in ENE 2.3 mph 2.3 mph 49 % 0.00 in
12:37 78.1 °F 56.2 °F 29.82 in NW 2.3 mph 2.3 mph 47 % 0.00 in
12:42 78.6 °F 57.8 °F 29.82 in Calm   0.9 mph 49 % 0.00 in
12:47 79.1 °F 57.1 °F 29.82 in SE 3.5 mph 3.5 mph 47 % 0.00 in
12:52 79.3 °F 58.5 °F 29.82 in SSE 3.5 mph 3.5 mph 49 % 0.00 in
12:57 79.6 °F 57.0 °F 29.82 in SSE 1.2 mph 1.2 mph 46 % 0.00 in
13:02 79.5 °F 56.3 °F 29.81 in North 1.2 mph 1.2 mph 45 % 0.00 in
13:08 79.6 °F 57.0 °F 29.81 in ESE 5.8 mph 5.8 mph 46 % 0.00 in
13:13 79.5 °F 56.3 °F 29.81 in ENE 3.5 mph 3.5 mph 45 % 0.00 in
13:18 79.7 °F 58.3 °F 29.80 in South 2.3 mph 2.3 mph 48 % 0.00 in
13:23 80.4 °F 55.9 °F 29.80 in East 1.2 mph   43 % 0.00 in
13:28 80.5 °F 57.2 °F 29.80 in Calm     45 % 0.00 in
13:33 81.2 °F 57.2 °F 29.80 in NNE 2.3 mph 2.3 mph 44 % 0.00 in
13:38 81.5 °F 57.5 °F 29.79 in WNW 2.3 mph 2.3 mph 44 % 0.00 in
13:43 80.8 °F 57.5 °F 29.79 in NW 2.3 mph 2.3 mph 45 % 0.00 in
13:53 81.6 °F 58.2 °F 29.79 in NNE 1.2 mph 1.2 mph 45 % 0.00 in
13:58 81.2 °F 57.2 °F 29.78 in WNW 2.3 mph 2.3 mph 44 % 0.00 in
14:03 81.0 °F 56.4 °F 29.78 in NW 2.3 mph 2.3 mph 43 % 0.00 in
14:08 81.1 °F 58.4 °F 29.78 in WNW 2.3 mph 2.3 mph 46 % 0.00 in
14:13 80.8 °F 58.1 °F 29.78 in WNW 3.5 mph 3.5 mph 46 % 0.00 in
14:18 80.5 °F 57.8 °F 29.77 in SW 3.5 mph 3.5 mph 46 % 0.00 in
14:23 80.2 °F 57.5 °F 29.77 in NW 2.3 mph 2.3 mph 46 % 0.00 in
14:28 80.3 °F 57.0 °F 29.77 in WNW 1.2 mph 1.2 mph 45 % 0.00 in
14:33 80.6 °F 56.7 °F 29.77 in SE 1.2 mph 1.2 mph 44 % 0.00 in
14:38 81.0 °F 57.0 °F 29.77 in West 2.3 mph 2.3 mph 44 % 0.00 in
14:48 80.9 °F 58.2 °F 29.77 in SE 1.2 mph 1.2 mph 46 % 0.00 in
14:53 81.5 °F 58.1 °F 29.77 in SE 2.3 mph 2.3 mph 45 % 0.00 in
14:55 81.7 °F 59.5 °F 29.77 in ESE 1.2 mph 1.2 mph 47 % 0.00 in
15:00 82.4 °F 58.3 °F 29.76 in North 1.2 mph 1.2 mph 44 % 0.00 in
15:05 82.2 °F 57.5 °F 29.76 in NNW 3.5 mph 3.5 mph 43 % 0.00 in
15:10 81.5 °F 57.5 °F 29.76 in NNW 2.3 mph 2.3 mph 44 % 0.00 in
15:15 81.4 °F 58.0 °F 29.76 in NW 1.2 mph 1.2 mph 45 % 0.00 in
15:20 81.6 °F 58.2 °F 29.75 in NW 3.5 mph 3.5 mph 45 % 0.00 in
15:25 81.4 °F 58.0 °F 29.75 in WNW 3.5 mph 3.5 mph 45 % 0.00 in
15:30 81.3 °F 59.1 °F 29.75 in WSW 2.3 mph 2.3 mph 47 % 0.00 in
15:35 81.2 °F 57.8 °F 29.75 in NW 4.6 mph 4.6 mph 45 % 0.00 in
15:40 80.9 °F 57.6 °F 29.75 in West 3.0 mph 3.0 mph 45 % 0.00 in
15:45 81.0 °F 57.7 °F 29.74 in WNW 2.3 mph 2.3 mph 45 % 0.00 in
15:50 81.0 °F 57.7 °F 29.74 in North 4.0 mph 4.0 mph 45 % 0.00 in
15:55 81.2 °F 58.5 °F 29.74 in NW 2.3 mph 2.3 mph 46 % 0.00 in
16:00 81.1 °F 57.7 °F 29.74 in WNW 3.5 mph 3.5 mph 45 % 0.00 in
16:05 81.0 °F 58.3 °F 29.73 in NW 3.5 mph 3.5 mph 46 % 0.00 in
16:10 80.8 °F 57.5 °F 29.73 in WNW 3.5 mph 3.5 mph 45 % 0.00 in
16:15 80.7 °F 58.0 °F 29.73 in NW 3.5 mph 3.5 mph 46 % 0.00 in
16:20 80.7 °F 58.6 °F 29.73 in NW 2.0 mph 2.0 mph 47 % 0.00 in
16:25 80.6 °F 57.9 °F 29.73 in NNW 3.5 mph 3.5 mph 46 % 0.00 in
16:30 80.4 °F 57.1 °F 29.73 in NNW 3.5 mph 3.5 mph 45 % 0.00 in
16:35 80.3 °F 57.6 °F 29.72 in WNW 4.6 mph 4.6 mph 46 % 0.00 in
16:40 80.1 °F 57.5 °F 29.72 in West 2.3 mph 2.3 mph 46 % 0.00 in
16:45 80.2 °F 58.1 °F 29.72 in WNW 4.6 mph 4.6 mph 47 % 0.00 in
16:50 80.1 °F 57.5 °F 29.72 in NE 4.6 mph 4.6 mph 46 % 0.00 in
16:55 80.0 °F 57.4 °F 29.71 in North 3.5 mph 3.5 mph 46 % 0.00 in
17:00 79.9 °F 57.3 °F 29.72 in NW 3.5 mph 3.5 mph 46 % 0.00 in
17:05 79.9 °F 57.3 °F 29.71 in NW 3.5 mph 3.5 mph 46 % 0.00 in
17:10 79.9 °F 56.7 °F 29.71 in West 2.3 mph 2.3 mph 45 % 0.00 in
17:15 79.7 °F 55.9 °F 29.71 in NW 3.5 mph 3.5 mph 44 % 0.00 in
17:20 79.6 °F 55.8 °F 29.71 in NNW 3.5 mph 3.5 mph 44 % 0.00 in
17:25 79.4 °F 55.6 °F 29.71 in NW 3.5 mph 3.5 mph 44 % 0.00 in
17:30 79.2 °F 55.4 °F 29.71 in NW 3.5 mph 3.5 mph 44 % 0.00 in
17:35 79.1 °F 54.7 °F 29.71 in WNW 4.6 mph 4.6 mph 43 % 0.00 in
17:40 78.8 °F 53.8 °F 29.70 in North 3.5 mph 3.5 mph 42 % 0.00 in
17:45 78.6 °F 54.2 °F 29.70 in NW 4.0 mph 4.0 mph 43 % 0.00 in
17:50 78.4 °F 54.0 °F 29.70 in NW 2.3 mph 2.3 mph 43 % 0.00 in
17:55 78.2 °F 53.2 °F 29.70 in NW 8.1 mph 8.1 mph 42 % 0.00 in
18:00 78.0 °F 53.7 °F 29.70 in NW 4.6 mph 4.6 mph 43 % 0.00 in
18:05 77.7 °F 54.0 °F 29.70 in NW 2.3 mph 2.3 mph 44 % 0.00 in
18:10 77.4 °F 53.8 °F 29.70 in NW 1.2 mph 1.2 mph 44 % 0.00 in
18:15 77.0 °F 53.4 °F 29.70 in WNW 3.5 mph 3.5 mph 44 % 0.00 in
18:20 76.7 °F 52.5 °F 29.70 in NW 1.2 mph 1.2 mph 43 % 0.00 in
18:25 76.2 °F 52.1 °F 29.70 in NW 1.2 mph   43 % 0.00 in
18:30 75.7 °F 52.2 °F 29.70 in WNW 1.2 mph 1.2 mph 44 % 0.00 in
18:33 75.5 °F 51.4 °F 29.70 in WNW 2.3 mph 2.3 mph 43 % 0.00 in
18:38 75.1 °F 51.1 °F 29.70 in NW 1.2 mph 1.2 mph 43 % 0.00 in
18:43 74.6 °F 50.6 °F 29.70 in Calm     43 % 0.00 in
18:48 74.1 °F 50.8 °F 29.70 in NW 1.2 mph 1.2 mph 44 % 0.00 in
18:53 73.6 °F 50.3 °F 29.70 in North 1.2 mph 1.2 mph 44 % 0.00 in
18:58 73.2 °F 49.4 °F 29.70 in NW 1.2 mph 1.2 mph 43 % 0.00 in
19:03 72.9 °F 49.1 °F 29.70 in NW 1.2 mph 1.2 mph 43 % 0.00 in
19:08 72.6 °F 48.8 °F 29.70 in West 2.0 mph 2.0 mph 43 % 0.00 in
19:13 72.3 °F 47.9 °F 29.70 in NW 2.3 mph 2.3 mph 42 % 0.00 in
19:18 72.0 °F 47.6 °F 29.70 in NW 1.2 mph 1.2 mph 42 % 0.00 in
19:23 71.7 °F 47.4 °F 29.70 in WNW 1.2 mph 1.2 mph 42 % 0.00 in
19:28 71.5 °F 46.6 °F 29.71 in NW 2.0 mph 2.0 mph 41 % 0.00 in
19:33 71.5 °F 45.9 °F 29.71 in WNW 1.2 mph 1.2 mph 40 % 0.00 in
19:38 71.5 °F 45.2 °F 29.71 in NW 1.2 mph   39 % 0.00 in
19:43 71.3 °F 45.1 °F 29.71 in NW 2.3 mph 2.3 mph 39 % 0.00 in
19:48 71.3 °F 45.1 °F 29.71 in WNW 2.3 mph 2.3 mph 39 % 0.00 in
19:53 71.3 °F 44.4 °F 29.71 in WNW 2.3 mph 2.3 mph 38 % 0.00 in
19:58 71.1 °F 43.5 °F 29.71 in WNW 2.3 mph 2.3 mph 37 % 0.00 in
20:03 70.9 °F 44.0 °F 29.72 in WNW 2.0 mph 2.0 mph 38 % 0.00 in
20:08 70.7 °F 43.8 °F 29.72 in NW 2.3 mph 2.3 mph 38 % 0.00 in
20:13 70.5 °F 43.7 °F 29.71 in WNW 1.2 mph 1.2 mph 38 % 0.00 in
20:18 70.1 °F 44.0 °F 29.72 in Calm     39 % 0.00 in
20:23 69.7 °F 44.3 °F 29.72 in Calm   0.1 mph 40 % 0.00 in
20:28 69.1 °F 44.4 °F 29.72 in WNW 1.2 mph 1.2 mph 41 % 0.00 in
20:33 68.8 °F 44.1 °F 29.72 in NW 1.2 mph 1.2 mph 41 % 0.00 in
20:38 68.5 °F 44.5 °F 29.72 in NW 1.2 mph 1.2 mph 42 % 0.00 in
20:43 68.1 °F 43.5 °F 29.72 in NW 1.2 mph 1.2 mph 41 % 0.00 in
20:48 68.1 °F 43.5 °F 29.71 in NW 2.3 mph 2.3 mph 41 % 0.00 in
20:53 68.4 °F 43.8 °F 29.71 in NW 2.3 mph 2.3 mph 41 % 0.00 in
20:58 69.2 °F 43.2 °F 29.72 in NW 3.0 mph 3.0 mph 39 % 0.00 in
21:03 70.1 °F 43.3 °F 29.72 in WNW 1.2 mph 1.2 mph 38 % 0.00 in
21:08 70.0 °F 43.9 °F 29.72 in NW 1.2 mph 1.2 mph 39 % 0.00 in
21:13 69.7 °F 44.3 °F 29.72 in Calm     40 % 0.00 in
21:18 69.2 °F 43.8 °F 29.72 in Calm     40 % 0.00 in
21:23 68.6 °F 45.2 °F 29.72 in Calm     43 % 0.00 in
21:28 67.7 °F 44.4 °F 29.72 in SE 1.2 mph   43 % 0.00 in
21:33 66.8 °F 45.9 °F 29.71 in Calm     47 % 0.00 in
21:38 65.8 °F 46.1 °F 29.71 in Calm     49 % 0.00 in
21:43 65.1 °F 47.0 °F 29.71 in Calm     52 % 0.00 in
21:48 64.4 °F 46.4 °F 29.72 in Calm     52 % 0.00 in
21:53 63.9 °F 45.9 °F 29.72 in Calm     52 % 0.00 in
21:58 63.5 °F 46.1 °F 29.72 in Calm     53 % 0.00 in
22:03 63.2 °F 45.8 °F 29.72 in Calm     53 % 0.00 in
22:08 63.1 °F 46.2 °F 29.72 in Calm     54 % 0.00 in
22:13 63.0 °F 47.1 °F 29.72 in Calm     56 % 0.00 in
22:18 62.7 °F 47.7 °F 29.72 in Calm     58 % 0.00 in
22:24 62.2 °F 48.1 °F 29.72 in Calm     60 % 0.00 in
22:29 61.8 °F 48.2 °F 29.72 in Calm     61 % 0.00 in
22:34 61.3 °F 47.3 °F 29.72 in Calm     60 % 0.00 in
22:39 61.0 °F 46.1 °F 29.72 in Calm     58 % 0.00 in
22:44 60.6 °F 46.6 °F 29.72 in Calm     60 % 0.00 in
22:49 60.5 °F 46.5 °F 29.72 in Calm     60 % 0.00 in
22:54 60.2 °F 47.1 °F 29.72 in Calm     62 % 0.00 in
22:59 60.0 °F 47.4 °F 29.72 in Calm     63 % 0.00 in
23:04 59.8 °F 47.6 °F 29.72 in Calm     64 % 0.00 in
23:09 59.4 °F 47.6 °F 29.72 in Calm     65 % 0.00 in
23:14 59.2 °F 46.6 °F 29.72 in Calm     63 % 0.00 in
23:19 59.1 °F 46.9 °F 29.72 in Calm     64 % 0.00 in
23:24 58.9 °F 47.6 °F 29.72 in Calm     66 % 0.00 in
23:29 58.5 °F 47.6 °F 29.72 in Calm     67 % 0.00 in
23:34 58.2 °F 46.5 °F 29.72 in Calm     65 % 0.00 in
23:35 58.2 °F 46.5 °F 29.72 in Calm     65 % 0.00 in
23:40 58.0 °F 46.3 °F 29.73 in Calm   0.1 mph 65 % 0.00 in
23:45 57.8 °F 45.7 °F 29.73 in Calm     64 % 0.00 in
23:50 57.5 °F 45.0 °F 29.73 in Calm     63 % 0.00 in
23:55 57.6 °F 45.1 °F 29.73 in ESE 1.2 mph   63 % 0.00 in
Park Place, Exeter, Tulare County, California, USA
Compliments of Weather Underground - 2.75 mb